Lapse_Rate
9.5 8.8 6.0 6.2 6.4 6.5 6.5 6.5 6.5 6.6 6.7 6.6 6.6 6.7 6.9 6.5 6.6 7.6 6.5 6.2 6.1 6.5 6.5 7.0 7.1 6.3 6.1 6.2 6.1 5.7 5.4 5.4 5.4 5.5 5.7 5.8 6.1 6.5 6.5 6.7 7.4 7.6 6.4
9.7 9.5 5.7 6.0 6.3 6.4 6.4 6.4 6.3 6.3 6.6 6.6 6.6 6.7 6.8 6.8 6.8 7.7 6.6 6.3 6.0 5.8 5.9 6.2 6.3 6.2 6.2 6.1 6.0 5.8 5.5 5.2 5.2 5.9 6.1 6.7 6.1 6.2 6.4 6.7 7.3 6.6 6.7
9.7 9.6 8.3 5.8 6.0 6.1 6.1 6.2 6.2 6.2 6.4 6.6 6.5 6.5 6.8 6.9 6.6 6.7 6.2 6.1 6.0 6.0 5.9 5.8 6.1 6.1 6.0 6.0 6.0 5.7 5.5 5.2 5.5 6.1 7.8 9.0 7.6 6.5 6.6 6.5 6.7 6.5 6.5
9.8 9.6 9.3 5.7 5.9 6.1 6.2 6.4 6.2 6.3 6.3 6.5 6.8 6.8 6.8 6.8 6.8 6.7 6.1 5.9 5.8 5.8 5.8 5.8 5.8 6.0 6.1 6.0 5.9 5.8 5.6 5.6 6.4 7.3 9.4 9.6 9.2 6.4 6.6 6.7 6.8 6.7 6.6
9.8 9.6 7.3 6.0 5.9 6.0 6.2 6.4 6.4 6.4 6.3 6.4 6.6 6.7 6.8 6.8 6.6 6.2 5.9 5.6 5.5 5.5 5.6 5.5 5.4 5.4 5.7 5.8 5.7 5.5 5.1 5.0 6.4 8.2 9.6 8.9 9.2 6.5 6.5 6.8 7.0 7.2 6.9
9.8 9.5 6.1 5.9 5.9 5.8 6.0 6.3 6.3 6.4 6.3 6.4 6.5 6.7 6.8 6.8 6.8 6.6 6.0 5.5 5.4 5.5 5.5 5.5 5.5 5.5 5.3 5.6 5.8 5.5 5.2 5.5 6.4 9.6 9.7 9.4 8.7 6.9 6.8 6.6 7.0 7.0 7.0
9.8 9.4 7.5 5.8 5.8 5.7 5.8 5.9 6.1 6.1 6.2 6.1 6.3 6.5 6.7 7.0 6.8 6.6 6.3 5.7 5.6 5.8 5.9 5.7 5.6 5.3 5.2 5.2 5.3 5.2 4.9 5.5 7.8 9.7 9.7 9.6 6.9 6.9 6.8 6.9 7.0 7.3 7.0
9.6 9.3 7.8 5.3 5.6 5.6 5.4 5.3 5.5 5.6 5.6 5.6 5.7 6.2 6.4 6.6 6.5 6.3 6.3 6.2 6.2 6.1 6.0 5.9 5.8 5.6 5.4 5.3 5.0 4.7 4.6 5.3 8.9 9.7 9.6 8.8 6.0 6.7 6.7 6.6 6.8 7.0 7.1
9.5 9.5 9.3 7.6 5.3 4.9 4.9 4.9 5.0 5.1 5.1 5.0 4.9 4.9 5.3 5.8 6.3 6.3 6.3 6.4 6.3 6.1 5.9 5.9 5.9 5.8 5.5 5.2 4.9 4.7 4.8 5.7 7.6 9.5 9.6 8.5 6.1 6.4 6.2 6.2 6.3 6.7 6.8
9.7 9.6 9.6 9.3 8.8 7.9 6.3 4.2 4.2 4.3 4.2 4.1 4.2 4.5 5.0 5.5 5.8 6.0 6.3 6.2 6.1 6.0 5.9 5.6 5.4 5.1 5.1 5.0 4.9 4.7 4.9 5.8 8.9 9.7 9.7 6.6 6.3 6.8 6.5 5.7 5.8 6.2 6.2
9.5 9.6 9.2 9.2 9.4 9.4 8.7 5.0 4.1 3.7 3.9 4.4 4.6 4.9 5.9 8.7 8.6 7.6 4.6 5.0 5.1 5.1 5.1 5.2 5.1 5.2 5.4 5.1 5.2 5.7 5.8 9.2 9.7 9.7 9.3 5.1 6.0 6.8 6.7 6.3 6.1 5.7 5.8
9.1 9.5 9.3 8.2 9.1 8.9 9.4 6.9 8.3 6.5 7.3 7.1 7.3 7.7 7.6 8.4 7.3 7.4 5.4 4.9 5.1 5.1 5.3 5.3 5.6 6.3 6.4 8.9 7.1 7.6 9.3 9.4 9.6 9.6 6.5 5.0 5.8 6.6 6.5 6.6 6.4 6.4 6.4
9.2 9.4 9.6 9.4 9.0 8.9 9.4 9.4 9.4 9.4 9.1 7.7 7.8 7.3 7.6 8.0 7.6 8.6 8.1 7.4 7.4 6.6 8.5 8.5 8.9 8.4 8.1 8.4 8.8 8.9 8.6 8.8 8.8 7.3 5.7 4.5 5.1 5.9 6.4 6.4 6.4 6.4 6.4
9.0 9.3 9.5 9.7 8.6 8.8 9.3 8.4 9.7 9.6 9.5 9.4 8.1 7.1 8.0 9.0 8.6 8.8 8.9 8.5 8.7 8.5 9.1 9.1 9.5 9.2 8.3 8.7 9.1 8.3 8.1 8.4 9.3 9.2 5.7 4.7 4.4 5.0 5.7 6.1 6.3 6.5 6.8
8.9 8.9 9.2 9.0 8.5 8.2 8.5 9.5 9.7 9.7 9.0 9.6 8.7 7.3 7.4 9.4 8.8 8.4 8.7 9.0 8.7 8.3 9.1 9.3 9.4 9.5 9.7 9.6 9.6 9.7 9.6 9.1 8.7 8.1 8.6 6.0 4.9 4.8 5.4 5.8 6.4 6.7 6.6
9.1 9.1 9.3 8.9 9.3 9.3 8.6 9.5 9.7 9.7 9.6 9.5 9.5 9.3 8.2 9.4 9.3 8.8 9.2 8.2 8.3 7.4 7.9 8.1 8.7 8.6 8.8 8.8 9.1 9.5 9.2 9.4 9.5 9.3 9.0 8.2 5.9 5.3 5.1 5.5 6.2 6.4 6.7
9.2 9.4 9.4 9.4 9.4 9.5 8.9 9.3 9.3 9.4 9.3 9.4 9.0 7.1 7.4 7.5 7.7 8.0 7.4 7.6 7.2 6.5 6.7 7.7 8.5 8.1 8.8 9.7 9.2 8.9 8.0 8.5 8.6 9.3 9.4 8.3 8.0 5.6 4.8 4.7 4.8 5.4 6.2
9.3 9.3 9.4 9.6 9.1 8.8 8.9 8.9 9.3 9.3 8.7 9.5 8.3 7.1 6.7 6.6 6.9 7.1 7.4 7.5 6.2 6.6 6.5 7.2 7.8 7.6 9.3 9.5 9.5 9.6 9.7 9.7 9.5 9.6 9.2 9.3 8.7 8.1 6.7 4.8 4.6 4.9 5.6
9.4 9.3 9.3 9.5 9.2 7.8 9.3 8.6 9.4 9.3 8.5 8.3 7.4 7.0 6.5 6.3 6.4 7.2 7.0 6.7 6.0 6.5 6.8 6.7 7.5 7.0 7.6 8.7 9.1 9.1 9.0 8.5 9.4 9.6 9.6 9.5 8.4 7.2 7.5 6.1 5.5 5.2 5.4
9.3 9.4 9.4 9.5 9.3 9.1 8.8 8.6 8.8 7.6 7.2 7.3 7.4 7.0 6.1 6.1 5.8 6.4 6.3 6.2 6.2 6.5 6.9 7.0 7.0 7.3 6.4 6.8 7.3 7.9 7.7 7.8 7.6 8.1 9.0 9.1 8.9 7.5 7.9 8.2 8.6 7.2 7.0
8.8 9.1 9.3 9.3 9.2 8.8 7.4 6.9 6.7 6.3 6.4 6.5 6.7 6.5 6.3 6.1 5.7 5.9 6.2 6.1 6.0 6.6 7.0 6.7 6.7 6.3 6.8 6.8 6.4 7.9 8.4 8.7 8.2 9.1 9.2 9.2 9.4 8.6 8.0 8.5 9.1 9.1 8.5
6.4 6.3 7.8 8.9 9.0 7.5 6.6 6.6 7.4 7.3 7.3 7.0 6.4 5.9 6.0 5.8 5.3 5.7 5.9 6.1 6.0 6.1 6.1 6.0 5.9 6.8 7.1 6.9 6.8 8.2 7.7 8.2 7.9 8.5 8.9 9.3 9.3 8.3 8.2 7.7 9.0 8.7 9.2
6.6 5.6 6.6 7.9 8.3 7.4 6.6 7.0 7.0 7.6 6.6 6.4 5.6 5.5 5.5 5.5 5.1 5.1 5.4 5.7 5.4 5.3 5.9 5.8 5.6 5.8 6.5 8.5 6.9 7.2 7.7 7.4 7.9 8.0 7.4 7.3 7.0 8.3 8.6 9.0 8.3 8.9 8.7
7.5 6.1 6.2 7.2 7.8 7.1 7.0 6.2 5.3 5.2 5.6 5.9 6.3 6.1 5.8 5.7 5.3 4.8 4.8 4.9 5.2 5.3 5.5 5.5 5.7 5.6 5.9 6.1 8.1 7.1 7.2 8.1 7.8 7.5 7.9 6.7 6.5 7.8 9.0 9.6 8.7 8.6 8.0
8.5 6.4 5.8 6.7 7.4 6.9 6.4 5.6 5.9 6.7 7.8 8.7 8.1 6.6 6.0 5.3 5.0 4.6 4.6 5.0 5.2 5.1 5.2 5.4 5.2 5.2 5.7 6.1 7.0 7.9 8.2 8.5 8.7 8.3 7.7 7.7 7.3 7.4 8.4 8.8 8.5 9.0 7.8
8.6 7.2 5.9 6.2 6.6 6.6 5.8 5.5 6.5 6.7 7.5 7.0 6.2 6.0 5.7 5.3 5.0 4.9 4.6 4.7 4.8 4.9 4.9 4.9 5.1 5.4 5.8 6.1 6.4 7.2 7.8 8.4 8.3 8.1 8.0 8.1 8.1 7.8 8.6 8.7 8.3 8.6 7.9
Wind_Speed
6 12 7 6 6 5 5 6 6 5 5 6 6 8 9 9 9 10 11 11 12 12 13 13 15 15 14 14 14 15 15 14 13 11 9 11 11 9 7 5 3 11 8
7 14 8 6 6 6 6 7 6 5 6 5 5 6 8 9 8 11 11 11 12 11 11 12 13 13 13 14 14 13 13 12 10 7 4 10 12 8 6 7 9 9 6
6 11 10 6 7 5 6 6 6 7 6 5 4 5 6 8 9 10 10 10 11 11 11 12 13 14 14 12 12 12 11 10 7 4 5 9 11 8 7 7 7 7 8
7 6 12 7 7 5 6 6 7 7 7 6 5 5 6 7 8 10 10 10 11 12 13 13 13 14 15 14 13 12 11 11 10 11 7 8 11 9 6 5 5 5 5
7 5 10 7 6 5 6 6 7 7 7 6 6 6 6 7 8 9 9 9 10 10 10 11 11 12 13 13 12 10 10 10 11 10 9 8 10 9 4 3 2 4 4
7 8 9 7 7 6 7 6 7 7 7 6 6 6 5 6 6 8 8 8 8 9 9 9 10 10 10 10 10 10 10 12 19 9 9 8 14 9 6 5 5 6 6
6 9 10 7 8 8 8 7 6 7 7 7 5 5 5 5 7 6 6 6 7 7 8 8 8 7 8 8 9 10 10 11 11 10 9 10 11 10 9 7 5 5 6
6 6 9 8 8 8 8 8 7 6 6 7 7 6 6 7 8 7 6 6 5 6 7 7 7 7 8 7 8 9 9 10 9 7 8 12 11 9 10 9 7 4 4
8 6 7 8 10 9 8 8 9 9 8 8 7 8 8 8 7 8 6 5 5 5 6 7 7 6 6 7 7 7 7 8 10 6 6 11 10 8 8 9 9 8 6
6 6 6 7 8 9 8 8 9 9 9 8 7 8 8 9 8 7 7 8 6 6 8 7 6 5 3 1 3 5 7 10 6 1 3 8 9 8 8 8 8 7 7
6 6 6 6 5 5 8 7 8 8 8 9 8 6 6 5 5 7 9 8 7 7 6 5 5 4 5 6 2 4 9 5 4 4 6 8 7 7 7 7 7 6 5
10 9 8 8 8 7 7 9 8 8 7 5 5 6 4 4 4 6 7 6 5 2 2 1 2 5 8 1 7 5 6 7 5 4 11 10 9 7 6 6 7 7 5
11 9 10 9 10 9 7 7 7 6 6 5 5 4 4 4 7 6 7 9 7 1 2 2 3 4 5 7 5 4 4 4 4 6 8 6 8 8 8 8 9 9 8
13 12 12 11 10 11 9 8 7 7 7 6 5 4 5 4 3 2 1 1 1 1 2 2 4 2 4 2 3 3 4 5 5 4 7 6 6 7 8 9 9 10 10
14 13 12 11 11 11 9 9 7 6 6 6 5 5 4 2 2 2 0 2 2 2 2 3 4 6 6 5 4 4 3 2 3 3 4 3 2 6 8 9 9 10 10
14 13 12 12 11 11 8 7 6 6 6 5 4 4 3 2 3 2 1 0 1 3 3 4 4 4 3 3 4 4 6 6 6 6 6 3 2 2 5 8 9 10 10
13 13 14 13 12 10 9 8 7 7 6 5 5 4 3 3 3 2 2 1 1 2 3 3 3 3 3 2 4 5 5 7 7 6 5 5 4 5 2 4 6 8 9
14 14 14 12 13 12 10 8 7 7 6 5 5 5 4 4 2 2 2 2 1 1 1 2 2 3 3 3 4 4 4 6 7 7 5 5 6 7 3 1 5 7 8
14 13 14 14 13 13 10 8 8 7 6 6 6 6 6 4 3 3 2 2 2 1 1 2 2 2 3 3 4 4 4 5 6 7 7 5 5 5 7 2 2 3 9
14 13 13 12 13 12 8 6 5 5 7 7 7 7 7 6 4 3 3 3 3 2 2 2 2 1 2 3 5 5 5 4 5 4 5 5 5 6 6 6 5 5 4
14 13 15 15 15 11 9 9 8 8 7 6 8 9 8 6 5 4 3 3 3 3 2 2 2 2 3 2 4 5 4 5 5 4 4 4 3 4 5 6 7 7 0
14 14 14 15 16 13 9 8 7 7 7 6 7 8 8 8 7 6 4 3 3 2 3 3 2 3 2 1 3 3 3 2 4 3 2 3 2 4 4 6 5 5 5
14 14 14 14 14 14 13 8 6 5 3 5 6 6 7 9 8 6 5 4 4 3 3 3 3 3 3 1 3 3 3 2 2 4 3 1 3 2 5 1 3 4 5
12 11 12 12 13 13 13 10 11 8 7 6 6 6 6 9 7 6 6 6 5 4 3 3 3 3 2 4 2 4 5 5 3 3 4 4 3 3 3 3 3 1 4
11 9 10 12 13 13 13 12 9 9 6 5 4 7 7 6 8 8 8 7 5 4 4 3 3 3 3 4 3 3 4 4 5 5 7 2 3 3 2 2 3 3 1
7 7 9 12 13 14 13 14 13 11 8 7 7 6 6 5 5 9 9 8 7 5 4 3 3 4 4 4 4 4 4 4 4 4 6 7 5 4 1 3 2 1 1
Wind_Direction
128 113 106 109 106 109 111 109 102 110 102 90 92 92 96 81 74 76 68 64 61 57 57 58 65 61 58 60 67 65 61 54 48 48 66 76 63 66 62 44 327 87 87
119 108 103 112 109 105 94 100 103 106 98 95 98 93 88 83 75 76 71 66 66 64 59 57 59 53 55 68 73 69 63 60 54 42 67 94 72 68 58 44 64 88 87
125 115 122 106 103 101 99 105 106 102 103 103 109 110 94 89 90 87 80 70 63 59 55 51 47 43 47 58 60 56 54 53 41 3 336 129 78 54 55 58 61 70 66
117 123 109 111 106 111 104 99 105 106 103 96 88 108 110 98 98 86 83 75 68 60 55 51 49 47 44 45 47 43 36 17 359 340 47 48 84 66 48 57 66 76 87
117 118 95 109 113 111 101 100 98 101 99 99 94 97 103 113 99 89 84 81 75 73 71 63 59 54 48 42 38 31 22 359 336 340 56 20 45 61 60 51 114 93 58
132 115 109 115 111 112 104 95 96 97 102 99 98 100 95 108 106 96 92 88 82 79 74 71 61 54 52 43 33 27 10 350 325 37 28 42 48 31 39 49 52 72 82
135 117 125 118 117 109 99 94 94 95 95 98 102 109 106 105 127 107 105 96 91 84 79 75 71 68 60 46 31 25 16 350 334 30 36 45 43 35 42 44 43 58 79
129 132 129 124 118 114 111 108 110 111 105 101 98 98 101 93 131 130 123 116 103 92 82 72 62 54 45 38 32 24 7 352 328 40 24 65 24 32 38 43 39 41 47
141 156 151 140 127 112 97 98 99 106 108 106 98 96 94 92 114 127 125 116 103 88 78 64 55 51 42 30 22 11 351 325 312 35 12 50 20 33 31 35 36 37 39
157 166 156 153 168 155 131 111 114 111 111 109 109 108 120 118 114 111 116 86 91 75 66 63 58 52 38 20 2 343 310 284 290 15 57 47 12 25 30 27 23 25 30
168 172 168 179 172 174 145 139 128 123 129 133 129 136 175 139 144 112 86 90 80 72 67 45 16 348 279 219 224 310 289 281 3 11 59 44 11 10 18 20 18 16 14
186 184 181 179 179 176 176 173 170 158 176 166 171 166 140 141 95 108 119 118 110 88 81 66 357 289 264 198 181 251 309 2 339 10 69 29 11 2 356 354 350 351 350
197 189 192 182 183 187 187 183 184 186 177 182 176 169 157 163 171 194 162 176 172 149 221 285 324 2 352 355 2 355 341 329 11 350 63 37 18 14 4 360 349 341 313
198 198 190 190 187 195 184 204 190 193 190 185 179 184 199 196 168 204 202 347 256 339 304 311 315 350 329 332 338 352 343 342 339 342 113 63 15 7 355 348 337 331 329
197 197 195 194 191 190 193 197 195 195 204 189 182 184 226 210 192 209 235 292 294 300 312 321 323 334 328 351 303 310 294 312 321 342 327 104 26 359 343 339 326 328 328
201 200 197 194 196 188 199 191 196 194 193 183 171 175 182 195 181 211 159 100 328 337 347 338 344 322 312 316 316 315 321 313 305 310 307 284 176 331 323 331 318 313 312
203 202 196 195 199 193 203 194 202 203 190 186 169 166 158 176 166 181 175 195 9 344 309 308 306 293 287 271 266 279 277 280 281 282 283 306 299 220 249 320 324 322 313
206 201 199 190 194 196 199 192 200 190 204 185 175 163 167 163 179 179 178 173 146 240 308 293 326 310 286 288 293 291 301 290 288 290 301 295 317 324 274 111 4 344 328
210 205 199 194 195 196 194 189 194 179 197 184 183 174 177 171 175 194 193 159 218 243 246 279 270 299 305 305 294 301 295 300 295 294 286 313 312 305 312 135 124 55 30
209 208 200 191 198 192 185 184 178 177 198 191 193 189 181 181 183 199 186 204 229 218 241 247 275 295 322 310 296 292 277 272 282 280 302 306 314 318 307 312 244 150 67
208 205 200 191 193 183 183 184 185 194 193 195 194 190 191 186 187 200 204 204 232 253 268 287 299 275 278 295 302 270 245 255 274 279 297 295 320 329 338 334 329 316 46
199 198 197 196 189 189 183 188 191 195 194 197 190 194 196 193 195 204 206 209 215 232 229 242 252 289 268 290 294 309 283 205 213 235 290 308 339 355 329 335 336 327 325
201 195 198 196 189 188 187 179 176 169 182 190 194 197 199 200 193 197 200 206 203 233 234 225 230 247 283 229 246 294 296 250 28 135 210 184 277 279 286 308 310 332 343
202 191 196 195 192 191 189 177 181 183 188 197 191 198 191 201 192 192 203 212 216 220 229 224 220 256 260 268 214 247 274 298 306 286 162 200 225 257 290 286 290 348 350
202 188 191 193 193 192 190 190 190 202 202 179 180 180 180 186 191 195 208 213 219 221 234 241 212 232 248 265 287 278 236 256 256 264 288 183 197 200 250 287 323 294 29
191 186 194 194 193 194 194 200 198 197 191 172 183 183 183 184 194 204 205 211 216 216 224 225 233 254 262 257 270 280 270 266 255 240 257 270 276 143 177 272 261 313 247